Regional Weather Roundup
Issued by NWS

Home | Current Version | Previous Version | Text Only | Print | Product List | Glossary Off
Versions: 1 2 3 4 5 6 7 8 9 10 11 12 13 14 15 16 17 18 19 20 21 22 23 24 25 26 27 28 29 30 31 32 33 34 35 36 37 38 39 40 41 42 43 44 45 46 47 48 49 50

000
ASUS45 KABQ 291801
RWRNM
WEATHER ROUNDUP FOR NEW MEXICO
NATIONAL WEATHER SERVICE ALBUQUERQUE NM
1200 PM MDT SUN MAR 29 2015

NOTE: "FAIR" MEANS FEW OR NO CLOUDS BELOW 12,000 FEET AGL WITH NO
       SIGNIFICANT WEATHER OR OBSTRUCTIONS TO VISION.

      THIS PRODUCT IS RELEASED AS TWO VERSIONS.  ONE VERSION NEAR
      THE TOP OF THE HOUR CONTAINING PRELIMINARY DATA FROM ALBUQUERQUE
      AND OTHER STATIONS.  A FINAL VERSION WITH ADDITIONAL DATA IS
      ISSUED ABOUT 10 MINUTES AFTER THE HOUR.

NMZ501-503-504-510>518-291900-
NORTHWEST PLATEAU/NORTHCENTRAL MOUNTAINS

CITY           SKY/WX    TMP DP  RH WIND       PRES   REMARKS
FARMINGTON     SUNNY     65  21  18 VRB3      30.25F
6HR MIN TEMP:  36; 6HR MAX TEMP:  65;

SANTA FE       SUNNY     70  16  12 N10       30.28S
6HR MIN TEMP:  32; 6HR MAX TEMP:  71;

TAOS           SUNNY     64  21  19 N6        30.32S
ANGEL FIRE     FAIR      61  22  22 W9        30.36F

$$
NMZ402-403-502-505>509-291900-
WESTCENTRAL MOUNTAINS/SOUTHWEST MOUNTAINS

CITY           SKY/WX    TMP DP  RH WIND       PRES   REMARKS
GALLUP         SUNNY     67  18  15 CALM      30.31F
6HR MIN TEMP:  31; 6HR MAX TEMP:  67;

GRANTS         SUNNY     67  15  13 CALM      30.33F

$$
NMZ407-409-411-412-291900-
SOUTHERN DESERTS

CITY           SKY/WX    TMP DP  RH WIND       PRES   REMARKS
DEMING         SUNNY     78  11   8 SE6       30.22F
6HR MIN TEMP:  38; 6HR MAX TEMP:  79;

ALAMOGORDO     MOSUNNY   81  16   9 N12G23    30.19F
T OR C         SUNNY     78  13   8 VRB5      30.22F
6HR MIN TEMP:  55; 6HR MAX TEMP:  79;


$$
NMZ519>523-291900-
CENTRAL VALLEYS/CENTRAL HIGHLANDS

CITY           SKY/WX    TMP DP  RH WIND       PRES   REMARKS
ALBUQUERQUE    PTSUNNY   69  19  15 CALM      30.26F
6HR MIN TEMP:  47; 6HR MAX TEMP:  69;

DOUBLE EAGLE   MOSUNNY   64  18  16 SE7       30.28F
MORIARTY ARPT  FAIR      73  14  10 NW9G17    30.29S
6HR MIN TEMP:  43; 6HR MAX TEMP:  74;

CLINES CORNERS SUNNY     68  16  13 N12G21    30.31S
6HR MIN TEMP:  39; 6HR MAX TEMP:  70;

BELEN          FAIR      73  17  12 N3        30.25F
6HR MIN TEMP:  47; 6HR MAX TEMP:  73;

SOCORRO        FAIR      77  20  11 CALM      30.22F
6HR MIN TEMP:  53; 6HR MAX TEMP:  77;


$$
NMZ524>526-539-540-291900-
SOUTHCENTRAL MOUNTAINS

CITY           SKY/WX    TMP DP  RH WIND       PRES   REMARKS
RUIDOSO        NOT AVBL

$$
NMZ527>531-291900-
NORTHEAST HIGHLANDS/NORTHEAST PLAINS

CITY           SKY/WX    TMP DP  RH WIND       PRES   REMARKS
LAS VEGAS      SUNNY     67  22  18 E10       30.31F
6HR MIN TEMP:  44; 6HR MAX TEMP:  67;

RATON          SUNNY     62  23  22 NE22G29   30.30S
6HR MIN TEMP:  38; 6HR MAX TEMP:  63; 6HR PCP: TRACE;

CLAYTON        SUNNY     64  29  26 N21G32    30.27R
6HR MIN TEMP:  53; 6HR MAX TEMP:  65;


$$
NMZ532>537-291900-
EASTCENTRAL PLAINS

CITY           SKY/WX    TMP DP  RH WIND       PRES   REMARKS
TUCUMCARI      SUNNY     73  29  19 NE23G35   30.22R
6HR MIN TEMP:  47; 6HR MAX TEMP:  75;

CANNON AFB     NOT AVBL
CLOVIS AIRPORT SUNNY     75  30  19 N30G39    30.21R

$$
NMZ028-029-538-291900-
SOUTHEAST PLAINS

CITY           SKY/WX    TMP DP  RH WIND       PRES   REMARKS
ROSWELL        SUNNY     83  21  10 NE23G30   30.13S
6HR MIN TEMP:  60; 6HR MAX TEMP:  85; 6HR PCP: TRACE;

ARTESIA        SUNNY     84  30  14 N16       30.13F
CARLSBAD       SUNNY     84  25  11 N8        30.11F
6HR MIN TEMP:  48; 6HR MAX TEMP:  84;

HOBBS          SUNNY     82  25  12 N25G31    30.14R


$$



USA.gov is the U.S. government's official web portal to all federal, state and local government web resources and services.